Regional Weather Roundup
Issued by NWS Green Bay, WI

Home | Current Version | Previous Version | Text Only | Print | Product List | Glossary On
Versions: 1 2 3 4 5 6 7 8 9 10 11 12 13 14 15 16 17 18 19 20 21 22 23 24 25 26 27 28 29 30 31 32 33 34 35 36 37 38 39 40 41 42 43 44 45 46 47 48 49 50
000
ASUS43 KGRB 281810
RWRGRB

NORTH-CENTRAL AND NORTHEAST WISCONSIN REGIONAL WEATHER ROUNDUP
NATIONAL WEATHER SERVICE GREEN BAY WI
1200 PM CST SUN DEC 28 2014

WIZ005-009-010>012-018-019-281900-
NORTH CENTRAL WISCONSIN

CITY           SKY/WX    TMP DP  RH WIND       PRES   REMARKS
IRONWOOD       CLOUDY    14   9  79 NW10      30.08S WCI   1
MANITOWISH WTR PTSUNNY   15   7  70 W8        30.06R WCI   4
ARBOR VITAE    CLOUDY    19  12  74 NW10      30.05S WCI   8
EAGLE RIVER    FLURRIES  19  10  70 W9G17     30.03S WCI   7
LAND O LAKES   FLURRIES  18  11  74 NW10      30.03S WCI   6
RHINELANDER    PTSUNNY   16  11  80 W9        30.06S WCI   4
PHILLIPS       FLURRIES  17  12  82 W3        30.08S
ANTIGO         FLURRIES  15  12  88 W7        30.07F WCI   6
TOMAHAWK       CLOUDY    18  12  77 NW6       30.09R
MERRILL        LGT SNOW  17  15  92 CALM      30.10S
$$

WIZ013-073-281900-
NORTHEAST WISCONSIN

CITY           SKY/WX    TMP DP  RH WIND       PRES   REMARKS
IRON MOUNTAIN    N/A     21  13  71 NW12      30.04S WCI   9
MARINETTE      SUNNY     25  14  63 NW9       30.09F
OCONTO         SUNNY     24  16  71 W8        30.11F
$$

WIZ017-030-035>037-045-281900-
CENTRAL WISCONSIN

CITY           SKY/WX    TMP DP  RH WIND       PRES   REMARKS
MEDFORD        LGT SNOW  13  10  89 CALM      30.09F
WAUSAU         CLOUDY    17  13  84 NW8       30.10S FOG     WCI   7
MOSINEE        LGT SNOW  18  18 100 W3        30.12S
MARSHFIELD     CLOUDY    16  11  80 NW5       30.11F WCI   9
WISC RAPIDS    CLOUDY    23  15  71 W5        30.14F
STEVENS POINT  CLOUDY    19  15  83 W5        30.12F
WAUPACA        SUNNY     28  18  66 W5        30.13F
SHAWANO        SUNNY     24  16  70 W6        30.12F
CLINTONVILLE   MOSUNNY   25  18  74 W6        30.12F
$$

WIZ038-039-048-051-281900-
FOX VALLEY

CITY           SKY/WX    TMP DP  RH WIND       PRES   REMARKS
NWS GREEN BAY  SUNNY     26  18  71 W8        30.13S
APPLETON       PTSUNNY   25  16  68 NW7       30.13S
OSHKOSH        SUNNY     26  18  71 W6        30.13F
FOND DU LAC    SUNNY     27  17  66 W7        30.13F
$$

WIZ022-050-052-281900-
EAST CENTRAL WISCONSIN

CITY           SKY/WX    TMP DP  RH WIND       PRES   REMARKS
STURGEON BAY   SUNNY     23  14  68 W9        30.11S
MANITOWOC      SUNNY     27  21  78 W9        30.12F
SHEBOYGAN      SUNNY     28  18  66 NW12      30.12F
$$

LMZ563-521-522-541>543-281900-
LAKESHORE

STATION/POSITION TIME  TEMP    WIND        PRES    VSBY  WAVE
                       AIR SEA DIR/SP/G                  HT/PER
                 (UTC) (F)     (DEG/KT/KT) (MB)    (MI)  (FT/S)
SHEBOYGAN LKSHOR 1800   28 37  300/  8/ 10 1021.1F
KEWAUNEE LKSHORE 1800   25     300/ 11/ 14 1018.7S
NORTHPORT PIER   1800   24     300/  8/ 13 1018.6F
SISTER BAY LKSHO 1700          280/ 13/ 16   N/A
CHAMBERS ISLAND  1800   25     250/  4/  8 1019.3F
MENOMINEE LKSHOR 1800   24     260/  7/ 12 1019.8F
$$


USA.gov is the U.S. government's official web portal to all federal, state and local government web resources and services.